Year,Month,Day,Hour,Minute,Value (Times are PST for temperature in C)
2014,05,24,00,00,11.70
2014,05,24,00,01,11.70
2014,05,24,00,02,11.60
2014,05,24,00,03,11.60
2014,05,24,00,04,11.60
2014,05,24,00,05,11.60
2014,05,24,00,06,11.60
2014,05,24,00,07,11.60
2014,05,24,00,08,11.50
2014,05,24,00,09,11.40
2014,05,24,00,10,11.40
2014,05,24,00,11,11.40
2014,05,24,00,12,11.40
2014,05,24,00,13,11.40
2014,05,24,00,14,11.40
2014,05,24,00,15,11.40
2014,05,24,00,16,11.40
2014,05,24,00,17,11.40
2014,05,24,00,18,11.40
2014,05,24,00,19,11.40
2014,05,24,00,20,11.40
2014,05,24,00,21,11.40
2014,05,24,00,22,11.30
2014,05,24,00,23,11.30
2014,05,24,00,24,11.20
2014,05,24,00,25,11.20
2014,05,24,00,26,11.20
2014,05,24,00,27,11.20
2014,05,24,00,28,11.10
2014,05,24,00,29,11.10
2014,05,24,00,30,11.10
2014,05,24,00,31,11.10
2014,05,24,00,32,11.10
2014,05,24,00,33,11.10
2014,05,24,00,34,11.10
2014,05,24,00,35,11.10
2014,05,24,00,36,11.10
2014,05,24,00,37,11.10
2014,05,24,00,38,11.20
2014,05,24,00,39,11.20
2014,05,24,00,40,11.20
2014,05,24,00,41,11.20
2014,05,24,00,42,11.30
2014,05,24,00,43,11.30
2014,05,24,00,44,11.30
2014,05,24,00,45,11.30
2014,05,24,00,46,11.30
2014,05,24,00,47,11.30
2014,05,24,00,48,11.30
2014,05,24,00,49,11.30
2014,05,24,00,50,11.30
2014,05,24,00,51,11.30
2014,05,24,00,52,11.20
2014,05,24,00,53,11.20
2014,05,24,00,54,11.20
2014,05,24,00,55,11.20
2014,05,24,00,56,11.10
2014,05,24,00,57,11.10
2014,05,24,00,58,11.10
2014,05,24,00,59,11.10
2014,05,24,01,00,11.10
2014,05,24,01,01,11.10
2014,05,24,01,02,11.10
2014,05,24,01,03,11.10
2014,05,24,01,04,11.10
2014,05,24,01,05,11.00
2014,05,24,01,06,10.90
2014,05,24,01,07,10.90
2014,05,24,01,08,10.90
2014,05,24,01,09,10.90
2014,05,24,01,10,10.90
2014,05,24,01,11,10.90
2014,05,24,01,12,10.90
2014,05,24,01,13,10.90
2014,05,24,01,14,10.90
2014,05,24,01,15,10.90
2014,05,24,01,16,10.90
2014,05,24,01,17,10.90
2014,05,24,01,18,10.90
2014,05,24,01,19,10.90
2014,05,24,01,20,10.90
2014,05,24,01,21,10.90
2014,05,24,01,22,10.90
2014,05,24,01,23,10.80
2014,05,24,01,24,10.80
2014,05,24,01,25,10.80
2014,05,24,01,26,10.80
2014,05,24,01,27,10.70
2014,05,24,01,28,10.70
2014,05,24,01,29,10.70
2014,05,24,01,30,10.70
2014,05,24,01,31,10.70
2014,05,24,01,32,10.70
2014,05,24,01,33,10.70
2014,05,24,01,34,10.70
2014,05,24,01,35,10.70
2014,05,24,01,36,10.60
2014,05,24,01,37,10.60
2014,05,24,01,38,10.60
2014,05,24,01,39,10.60
2014,05,24,01,40,10.60
2014,05,24,01,41,10.60
2014,05,24,01,42,10.60
2014,05,24,01,43,10.60
2014,05,24,01,44,10.40
2014,05,24,01,45,10.40
2014,05,24,01,46,10.40
2014,05,24,01,47,10.40
2014,05,24,01,48,10.40
2014,05,24,01,49,10.30
2014,05,24,01,50,10.30
2014,05,24,01,51,10.30
2014,05,24,01,52,10.20
2014,05,24,01,53,10.20
2014,05,24,01,54,10.20
2014,05,24,01,55,10.20
2014,05,24,01,56,10.10
2014,05,24,01,57,10.10
2014,05,24,01,58,10.10
2014,05,24,01,59,10.10
2014,05,24,02,00,10.00
2014,05,24,02,01,9.90
2014,05,24,02,02,9.90
2014,05,24,02,03,9.90
2014,05,24,02,04,9.90
2014,05,24,02,05,9.90
2014,05,24,02,06,9.90
2014,05,24,02,07,9.80
2014,05,24,02,08,9.80
2014,05,24,02,09,9.80
2014,05,24,02,10,9.70
2014,05,24,02,11,9.70
2014,05,24,02,12,9.70
2014,05,24,02,13,9.70
2014,05,24,02,14,9.70
2014,05,24,02,15,9.60
2014,05,24,02,16,9.60
2014,05,24,02,17,9.60
2014,05,24,02,18,9.60
2014,05,24,02,19,9.50
2014,05,24,02,20,9.50
2014,05,24,02,21,9.50
2014,05,24,02,22,9.50
2014,05,24,02,23,9.50
2014,05,24,02,24,9.50
2014,05,24,02,25,9.40
2014,05,24,02,26,9.40
2014,05,24,02,27,9.40
2014,05,24,02,28,9.40
2014,05,24,02,29,9.40
2014,05,24,02,30,9.30
2014,05,24,02,31,9.30
2014,05,24,02,32,9.30
2014,05,24,02,33,9.30
2014,05,24,02,34,9.30
2014,05,24,02,35,9.30
2014,05,24,02,36,9.30
2014,05,24,02,37,9.30
2014,05,24,02,38,9.30
2014,05,24,02,39,9.30
2014,05,24,02,40,9.30
2014,05,24,02,41,9.30
2014,05,24,02,42,9.30
2014,05,24,02,43,9.30
2014,05,24,02,44,9.30
2014,05,24,02,45,9.30
2014,05,24,02,46,9.30
2014,05,24,02,47,9.30
2014,05,24,02,48,9.20
2014,05,24,02,49,9.20
2014,05,24,02,50,9.20
2014,05,24,02,51,9.20
2014,05,24,02,52,9.20
2014,05,24,02,53,9.20
2014,05,24,02,54,9.20
2014,05,24,02,55,9.20
2014,05,24,02,56,9.20
2014,05,24,02,57,9.20
2014,05,24,02,58,9.20
2014,05,24,02,59,9.10
2014,05,24,03,00,9.10
2014,05,24,03,01,9.10
2014,05,24,03,02,9.10
2014,05,24,03,03,9.10
2014,05,24,03,04,9.10
2014,05,24,03,05,9.00
2014,05,24,03,06,9.00
2014,05,24,03,07,9.00
2014,05,24,03,08,9.00
2014,05,24,03,09,9.00
2014,05,24,03,10,8.90
2014,05,24,03,11,8.90
2014,05,24,03,12,8.90
2014,05,24,03,13,8.90
2014,05,24,03,14,8.90
2014,05,24,03,15,8.90
2014,05,24,03,16,8.90
2014,05,24,03,17,8.90
2014,05,24,03,18,8.90
2014,05,24,03,19,8.80
2014,05,24,03,20,8.80
2014,05,24,03,21,8.80
2014,05,24,03,22,8.80
2014,05,24,03,23,8.80
2014,05,24,03,24,8.80
2014,05,24,03,25,8.80
2014,05,24,03,26,8.70
2014,05,24,03,27,8.70
2014,05,24,03,28,8.70
2014,05,24,03,29,8.70
2014,05,24,03,30,8.70
2014,05,24,03,31,8.70
2014,05,24,03,32,8.70
2014,05,24,03,33,8.70
2014,05,24,03,34,8.70
2014,05,24,03,35,8.70
2014,05,24,03,36,8.70
2014,05,24,03,37,8.70
2014,05,24,03,38,8.70
2014,05,24,03,39,8.70
2014,05,24,03,40,8.70
2014,05,24,03,41,8.70
2014,05,24,03,42,8.70
2014,05,24,03,43,8.70
2014,05,24,03,44,8.70
2014,05,24,03,45,8.70
2014,05,24,03,46,8.70
2014,05,24,03,47,8.70
2014,05,24,03,48,8.60
2014,05,24,03,49,8.60
2014,05,24,03,50,8.60
2014,05,24,03,51,8.60
2014,05,24,03,52,8.60
2014,05,24,03,53,8.60
2014,05,24,03,54,8.60
2014,05,24,03,55,8.60
2014,05,24,03,56,8.60
2014,05,24,03,57,8.50
2014,05,24,03,58,8.50
2014,05,24,03,59,8.50
2014,05,24,04,00,8.50
2014,05,24,04,01,8.50
2014,05,24,04,02,8.50
2014,05,24,04,03,8.40
2014,05,24,04,04,8.40
2014,05,24,04,05,8.40
2014,05,24,04,06,8.40
2014,05,24,04,07,8.40
2014,05,24,04,08,8.40
2014,05,24,04,09,8.40
2014,05,24,04,10,8.40
2014,05,24,04,11,8.30
2014,05,24,04,12,8.30
2014,05,24,04,13,8.30
2014,05,24,04,14,8.30
2014,05,24,04,15,8.30
2014,05,24,04,16,8.30
2014,05,24,04,17,8.30
2014,05,24,04,18,8.30
2014,05,24,04,19,8.30
2014,05,24,04,20,8.30
2014,05,24,04,21,8.20
2014,05,24,04,22,8.20
2014,05,24,04,23,8.20
2014,05,24,04,24,8.20
2014,05,24,04,25,8.20
2014,05,24,04,26,8.20
2014,05,24,04,27,8.20
2014,05,24,04,28,8.20
2014,05,24,04,29,8.20
2014,05,24,04,30,8.20
2014,05,24,04,31,8.20
2014,05,24,04,32,8.20
2014,05,24,04,33,8.20
2014,05,24,04,34,8.20
2014,05,24,04,35,8.20
2014,05,24,04,36,8.20
2014,05,24,04,37,8.20
2014,05,24,04,38,8.20
2014,05,24,04,39,8.10
2014,05,24,04,40,8.10
2014,05,24,04,41,8.10
2014,05,24,04,42,8.10
2014,05,24,04,43,8.10
2014,05,24,04,44,8.10
2014,05,24,04,45,8.00
2014,05,24,04,46,8.00
2014,05,24,04,47,8.00
2014,05,24,04,48,8.00
2014,05,24,04,49,8.00
2014,05,24,04,50,8.00
2014,05,24,04,51,8.00
2014,05,24,04,52,8.00
2014,05,24,04,53,8.00
2014,05,24,04,54,8.00
2014,05,24,04,55,8.00
2014,05,24,04,56,8.00
2014,05,24,04,57,8.00
2014,05,24,04,58,8.00
2014,05,24,04,59,8.00
2014,05,24,05,00,8.00
2014,05,24,05,01,8.00
2014,05,24,05,02,8.00
2014,05,24,05,03,7.90
2014,05,24,05,04,7.90
2014,05,24,05,05,7.90
2014,05,24,05,06,7.90
2014,05,24,05,07,7.90
2014,05,24,05,08,7.90
2014,05,24,05,09,7.90
2014,05,24,05,10,7.80
2014,05,24,05,11,7.80
2014,05,24,05,12,7.80
2014,05,24,05,13,7.80
2014,05,24,05,14,7.80
2014,05,24,05,15,7.80
2014,05,24,05,16,7.80
2014,05,24,05,17,7.80
2014,05,24,05,18,7.80
2014,05,24,05,19,7.80
2014,05,24,05,20,7.80
2014,05,24,05,21,7.80
2014,05,24,05,22,7.80
2014,05,24,05,23,7.80
2014,05,24,05,24,7.80
2014,05,24,05,25,7.70
2014,05,24,05,26,7.70
2014,05,24,05,27,7.70
2014,05,24,05,28,7.70
2014,05,24,05,29,7.70
2014,05,24,05,30,7.70
2014,05,24,05,31,7.70
2014,05,24,05,32,7.70
2014,05,24,05,33,7.70
2014,05,24,05,34,7.70
2014,05,24,05,35,7.70
2014,05,24,05,36,7.70
2014,05,24,05,37,7.60
2014,05,24,05,38,7.60
2014,05,24,05,39,7.60
2014,05,24,05,40,7.60
2014,05,24,05,41,7.60
2014,05,24,05,42,7.60
2014,05,24,05,43,7.60
2014,05,24,05,44,7.50
2014,05,24,05,45,7.50
2014,05,24,05,46,7.50
2014,05,24,05,47,7.50
2014,05,24,05,48,7.50
2014,05,24,05,49,7.40
2014,05,24,05,50,7.40
2014,05,24,05,51,7.40
2014,05,24,05,52,7.40
2014,05,24,05,53,7.40
2014,05,24,05,54,7.40
2014,05,24,05,55,7.40
2014,05,24,05,56,7.40
2014,05,24,05,57,7.40
2014,05,24,05,58,7.40
2014,05,24,05,59,7.40
2014,05,24,06,00,7.40
2014,05,24,06,01,7.40
2014,05,24,06,02,7.40
2014,05,24,06,03,7.40
2014,05,24,06,04,7.40
2014,05,24,06,05,7.40
2014,05,24,06,06,7.50
2014,05,24,06,07,7.50
2014,05,24,06,08,7.50
2014,05,24,06,09,7.50
2014,05,24,06,10,7.50
2014,05,24,06,11,7.50
2014,05,24,06,12,7.50
2014,05,24,06,13,7.50
2014,05,24,06,14,7.50
2014,05,24,06,15,7.50
2014,05,24,06,16,7.60
2014,05,24,06,17,7.60
2014,05,24,06,18,7.60
2014,05,24,06,19,7.60
2014,05,24,06,20,7.60
2014,05,24,06,21,7.70
2014,05,24,06,22,7.70
2014,05,24,06,23,7.70
2014,05,24,06,24,7.70
2014,05,24,06,25,7.70
2014,05,24,06,26,7.70
2014,05,24,06,27,7.70
2014,05,24,06,28,7.80
2014,05,24,06,29,7.80
2014,05,24,06,30,7.80
2014,05,24,06,31,7.80
2014,05,24,06,32,7.80
2014,05,24,06,33,7.80
2014,05,24,06,34,7.80
2014,05,24,06,35,7.80
2014,05,24,06,36,7.80
2014,05,24,06,37,7.80
2014,05,24,06,38,7.80
2014,05,24,06,39,7.80
2014,05,24,06,40,7.80
2014,05,24,06,41,7.80
2014,05,24,06,42,7.80
2014,05,24,06,43,7.80
2014,05,24,06,44,7.90
2014,05,24,06,45,7.90
2014,05,24,06,46,7.90
2014,05,24,06,47,7.90
2014,05,24,06,48,7.90
2014,05,24,06,49,8.00
2014,05,24,06,50,8.00
2014,05,24,06,51,8.00
2014,05,24,06,52,8.10
2014,05,24,06,53,8.10
2014,05,24,06,54,8.10
2014,05,24,06,55,8.10
2014,05,24,06,56,8.20
2014,05,24,06,57,8.20
2014,05,24,06,58,8.20
2014,05,24,06,59,8.20
2014,05,24,07,00,8.20
2014,05,24,07,01,8.20
2014,05,24,07,02,8.20
2014,05,24,07,03,8.20
2014,05,24,07,04,8.30
2014,05,24,07,05,8.30
2014,05,24,07,06,8.30
2014,05,24,07,07,8.40
2014,05,24,07,08,8.40
2014,05,24,07,09,8.40
2014,05,24,07,10,8.50
2014,05,24,07,11,8.50
2014,05,24,07,12,8.50
2014,05,24,07,13,8.50
2014,05,24,07,14,8.50
2014,05,24,07,15,8.60
2014,05,24,07,16,8.60
2014,05,24,07,17,8.60
2014,05,24,07,18,8.60
2014,05,24,07,19,8.60
2014,05,24,07,20,8.70
2014,05,24,07,21,8.70
2014,05,24,07,22,8.70
2014,05,24,07,23,8.70
2014,05,24,07,24,8.70
2014,05,24,07,25,8.80
2014,05,24,07,26,8.80
2014,05,24,07,27,8.90
2014,05,24,07,28,8.90
2014,05,24,07,29,9.00
2014,05,24,07,30,9.00
2014,05,24,07,31,9.00
2014,05,24,07,32,9.10
2014,05,24,07,33,9.10
2014,05,24,07,34,9.20
2014,05,24,07,35,9.20
2014,05,24,07,36,9.20
2014,05,24,07,37,9.30
2014,05,24,07,38,9.30
2014,05,24,07,39,9.40
2014,05,24,07,40,9.40
2014,05,24,07,41,9.50
2014,05,24,07,42,9.50
2014,05,24,07,43,9.60
2014,05,24,07,44,9.60
2014,05,24,07,45,9.70
2014,05,24,07,46,9.70
2014,05,24,07,47,9.70
2014,05,24,07,48,9.70
2014,05,24,07,49,9.70
2014,05,24,07,50,9.70
2014,05,24,07,51,9.70
2014,05,24,07,52,9.70
2014,05,24,07,53,9.80
2014,05,24,07,54,9.80
2014,05,24,07,55,9.80
2014,05,24,07,56,9.80
2014,05,24,07,57,9.90
2014,05,24,07,58,9.90
2014,05,24,07,59,9.90
2014,05,24,08,00,9.90
2014,05,24,08,01,9.90
2014,05,24,08,02,10.10
2014,05,24,08,03,10.10
2014,05,24,08,04,10.20
2014,05,24,08,05,10.20
2014,05,24,08,06,10.30
2014,05,24,08,07,10.40
2014,05,24,08,08,10.40
2014,05,24,08,09,10.50
2014,05,24,08,10,10.60
2014,05,24,08,11,10.70
2014,05,24,08,12,10.70
2014,05,24,08,13,10.80
2014,05,24,08,14,10.90
2014,05,24,08,15,10.90
2014,05,24,08,16,11.00
2014,05,24,08,17,11.10
2014,05,24,08,18,11.10
2014,05,24,08,19,11.10
2014,05,24,08,20,11.20
2014,05,24,08,21,11.30
2014,05,24,08,22,11.40
2014,05,24,08,23,11.40
2014,05,24,08,24,11.40
2014,05,24,08,25,11.50
2014,05,24,08,26,11.60
2014,05,24,08,27,11.60
2014,05,24,08,28,11.70
2014,05,24,08,29,11.70
2014,05,24,08,30,11.80
2014,05,24,08,31,11.80
2014,05,24,08,32,11.80
2014,05,24,08,33,11.90
2014,05,24,08,34,11.90
2014,05,24,08,35,12.00
2014,05,24,08,36,12.00
2014,05,24,08,37,12.10
2014,05,24,08,38,12.10
2014,05,24,08,39,12.20
2014,05,24,08,40,12.20
2014,05,24,08,41,12.30
2014,05,24,08,42,12.30
2014,05,24,08,43,12.30
2014,05,24,08,44,12.40
2014,05,24,08,45,12.40
2014,05,24,08,46,12.50
2014,05,24,08,47,12.50
2014,05,24,08,48,12.50
2014,05,24,08,49,12.60
2014,05,24,08,50,12.60
2014,05,24,08,51,12.70
2014,05,24,08,52,12.70
2014,05,24,08,53,12.80
2014,05,24,08,54,12.80
2014,05,24,08,55,12.80
2014,05,24,08,56,12.80
2014,05,24,08,57,12.90
2014,05,24,08,58,12.90
2014,05,24,08,59,13.00
2014,05,24,09,00,13.00
2014,05,24,09,01,13.10
2014,05,24,09,02,13.10
2014,05,24,09,03,13.20
2014,05,24,09,04,13.20
2014,05,24,09,05,13.30
2014,05,24,09,06,13.30
2014,05,24,09,07,13.30
2014,05,24,09,08,13.30
2014,05,24,09,09,13.30
2014,05,24,09,10,13.30
2014,05,24,09,11,13.40
2014,05,24,09,12,13.50
2014,05,24,09,13,13.50
2014,05,24,09,14,13.50
2014,05,24,09,15,13.60
2014,05,24,09,16,13.70
2014,05,24,09,17,13.70
2014,05,24,09,18,13.70
2014,05,24,09,19,13.80
2014,05,24,09,20,13.90
2014,05,24,09,21,13.90
2014,05,24,09,22,14.00
2014,05,24,09,23,14.00
2014,05,24,09,24,14.00
2014,05,24,09,25,14.10
2014,05,24,09,26,14.10
2014,05,24,09,27,14.20
2014,05,24,09,28,14.20
2014,05,24,09,29,14.20
2014,05,24,09,30,14.20
2014,05,24,09,31,14.30
2014,05,24,09,32,14.30
2014,05,24,09,33,14.30
2014,05,24,09,34,14.30
2014,05,24,09,35,14.40
2014,05,24,09,36,14.40
2014,05,24,09,37,14.40
2014,05,24,09,38,14.40
2014,05,24,09,39,14.40
2014,05,24,09,40,14.40
2014,05,24,09,41,14.40
2014,05,24,09,42,14.40
2014,05,24,09,43,14.40
2014,05,24,09,44,14.40
2014,05,24,09,45,14.40
2014,05,24,09,46,14.50
2014,05,24,09,47,14.50
2014,05,24,09,48,14.50
2014,05,24,09,49,14.50
2014,05,24,09,50,14.50
2014,05,24,09,51,14.50
2014,05,24,09,52,14.50
2014,05,24,09,53,14.50
2014,05,24,09,54,14.50
2014,05,24,09,55,14.50
2014,05,24,09,56,14.50
2014,05,24,09,57,14.50
2014,05,24,09,58,14.60
2014,05,24,09,59,14.60
2014,05,24,10,00,14.60
2014,05,24,10,01,14.60
2014,05,24,10,02,14.60
2014,05,24,10,03,14.70
2014,05,24,10,04,14.70
2014,05,24,10,05,14.70
2014,05,24,10,06,14.70
2014,05,24,10,07,14.80
2014,05,24,10,08,14.80
2014,05,24,10,09,14.80
2014,05,24,10,10,14.80
2014,05,24,10,11,14.80
2014,05,24,10,12,14.80
2014,05,24,10,13,14.80
2014,05,24,10,14,14.90
2014,05,24,10,15,14.90
2014,05,24,10,16,14.90
2014,05,24,10,17,15.00
2014,05,24,10,18,15.00
2014,05,24,10,19,15.00
2014,05,24,10,20,15.00
2014,05,24,10,21,15.00
2014,05,24,10,22,15.00
2014,05,24,10,23,15.00
2014,05,24,10,24,15.10
2014,05,24,10,25,15.10
2014,05,24,10,26,15.10
2014,05,24,10,27,15.20
2014,05,24,10,28,15.20
2014,05,24,10,29,15.20
2014,05,24,10,30,15.20
2014,05,24,10,31,15.30
2014,05,24,10,32,15.30
2014,05,24,10,33,15.30
2014,05,24,10,34,15.30
2014,05,24,10,35,15.40
2014,05,24,10,36,15.40
2014,05,24,10,37,15.50
2014,05,24,10,38,15.50
2014,05,24,10,39,15.60
2014,05,24,10,40,15.60
2014,05,24,10,41,15.60
2014,05,24,10,42,15.70
2014,05,24,10,43,15.70
2014,05,24,10,44,15.70
2014,05,24,10,45,15.70
2014,05,24,10,46,15.80
2014,05,24,10,47,15.80
2014,05,24,10,48,15.80
2014,05,24,10,49,15.80
2014,05,24,10,50,15.80
2014,05,24,10,51,15.80
2014,05,24,10,52,15.80
2014,05,24,10,53,15.80
2014,05,24,10,54,15.80
2014,05,24,10,55,15.80
2014,05,24,10,56,15.90
2014,05,24,10,57,15.90
2014,05,24,10,58,15.90
2014,05,24,10,59,15.90
2014,05,24,11,00,15.90
2014,05,24,11,01,15.90
2014,05,24,11,02,15.90
2014,05,24,11,03,15.90
2014,05,24,11,04,15.90
2014,05,24,11,05,15.90
2014,05,24,11,06,15.90
2014,05,24,11,07,15.90
2014,05,24,11,08,15.90
2014,05,24,11,09,15.90
2014,05,24,11,10,15.90
2014,05,24,11,11,15.80
2014,05,24,11,12,15.80
2014,05,24,11,13,15.80
2014,05,24,11,14,15.80
2014,05,24,11,15,15.80
2014,05,24,11,16,15.80
2014,05,24,11,17,15.80
2014,05,24,11,18,15.80
2014,05,24,11,19,15.70
2014,05,24,11,20,15.70
2014,05,24,11,21,15.70
2014,05,24,11,22,15.70
2014,05,24,11,23,15.70
2014,05,24,11,24,15.80
2014,05,24,11,25,15.80
2014,05,24,11,26,15.80
2014,05,24,11,27,15.90
2014,05,24,11,28,15.90
2014,05,24,11,29,16.00
2014,05,24,11,30,16.10
2014,05,24,11,31,16.10
2014,05,24,11,32,16.10
2014,05,24,11,33,16.20
2014,05,24,11,34,16.20
2014,05,24,11,35,16.20
2014,05,24,11,36,16.20
2014,05,24,11,37,16.30
2014,05,24,11,38,16.30
2014,05,24,11,39,16.30
2014,05,24,11,40,16.30
2014,05,24,11,41,16.30
2014,05,24,11,42,16.30
2014,05,24,11,43,16.30
2014,05,24,11,44,16.30
2014,05,24,11,45,16.30
2014,05,24,11,46,16.30
2014,05,24,11,47,16.20
2014,05,24,11,48,16.20
2014,05,24,11,49,16.20
2014,05,24,11,50,16.20
2014,05,24,11,51,16.20
2014,05,24,11,52,16.10
2014,05,24,11,53,16.10
2014,05,24,11,54,16.10
2014,05,24,11,55,16.10
2014,05,24,11,56,16.10
2014,05,24,11,57,16.00
2014,05,24,11,58,15.90
2014,05,24,11,59,15.90
2014,05,24,12,00,15.90
2014,05,24,12,01,15.90
2014,05,24,12,02,15.90
2014,05,24,12,03,15.90
2014,05,24,12,04,15.90
2014,05,24,12,05,15.90
2014,05,24,12,06,15.90
2014,05,24,12,07,15.90
2014,05,24,12,08,16.00
2014,05,24,12,09,16.10
2014,05,24,12,10,16.10
2014,05,24,12,11,16.10
2014,05,24,12,12,16.10
2014,05,24,12,13,16.10
2014,05,24,12,14,16.10
2014,05,24,12,15,16.10
2014,05,24,12,16,16.00
2014,05,24,12,17,15.90
2014,05,24,12,18,15.90
2014,05,24,12,19,15.90
2014,05,24,12,20,15.80
2014,05,24,12,21,15.90
2014,05,24,12,22,15.90
2014,05,24,12,23,15.90
2014,05,24,12,24,15.90
2014,05,24,12,25,16.10
2014,05,24,12,26,16.10
2014,05,24,12,27,16.10
2014,05,24,12,28,16.20
2014,05,24,12,29,16.30
2014,05,24,12,30,16.30
2014,05,24,12,31,16.30
2014,05,24,12,32,16.30
2014,05,24,12,33,16.30
2014,05,24,12,34,16.20
2014,05,24,12,35,16.20
2014,05,24,12,36,16.20
2014,05,24,12,37,16.20
2014,05,24,12,38,16.10
2014,05,24,12,39,16.10
2014,05,24,12,40,16.10
2014,05,24,12,41,16.10
2014,05,24,12,42,16.10
2014,05,24,12,43,16.10
2014,05,24,12,44,16.10
2014,05,24,12,45,16.10
2014,05,24,12,46,16.10
2014,05,24,12,47,16.10
2014,05,24,12,48,16.10
2014,05,24,12,49,16.10
2014,05,24,12,50,16.10
2014,05,24,12,51,16.10
2014,05,24,12,52,16.10
2014,05,24,12,53,16.10
2014,05,24,12,54,16.10
2014,05,24,12,55,16.10
2014,05,24,12,56,16.10
2014,05,24,12,57,16.10
2014,05,24,12,58,16.10
2014,05,24,12,59,16.10
2014,05,24,13,00,16.10
2014,05,24,13,01,16.10
2014,05,24,13,02,16.10
2014,05,24,13,03,16.10
2014,05,24,13,04,16.10
2014,05,24,13,05,16.10
2014,05,24,13,06,16.10
2014,05,24,13,07,16.10
2014,05,24,13,08,16.10
2014,05,24,13,09,16.20
2014,05,24,13,10,16.20
2014,05,24,13,11,16.20
2014,05,24,13,12,16.30
2014,05,24,13,13,16.30
2014,05,24,13,14,16.30
2014,05,24,13,15,16.30
2014,05,24,13,16,16.40
2014,05,24,13,17,16.40
2014,05,24,13,18,16.30
2014,05,24,13,19,16.30
2014,05,24,13,20,16.30
2014,05,24,13,21,16.30
2014,05,24,13,22,16.30
2014,05,24,13,23,16.30
2014,05,24,13,24,16.30
2014,05,24,13,25,16.30
2014,05,24,13,26,16.30
2014,05,24,13,27,16.30
2014,05,24,13,28,16.40
2014,05,24,13,29,16.40
2014,05,24,13,30,16.40
2014,05,24,13,31,16.40
2014,05,24,13,32,16.50
2014,05,24,13,33,16.60
2014,05,24,13,34,16.60
2014,05,24,13,35,16.60
2014,05,24,13,36,16.70
2014,05,24,13,37,16.70
2014,05,24,13,38,16.70
2014,05,24,13,39,16.70
2014,05,24,13,40,16.70
2014,05,24,13,41,16.70
2014,05,24,13,42,16.70
2014,05,24,13,43,16.70
2014,05,24,13,44,16.70
2014,05,24,13,45,16.80
2014,05,24,13,46,16.90
2014,05,24,13,47,16.90
2014,05,24,13,48,17.00
2014,05,24,13,49,17.00
2014,05,24,13,50,17.10
2014,05,24,13,51,17.10
2014,05,24,13,52,17.20
2014,05,24,13,53,17.30
2014,05,24,13,54,17.30
2014,05,24,13,55,17.30
2014,05,24,13,56,17.30
2014,05,24,13,57,17.30
2014,05,24,13,58,17.30
2014,05,24,13,59,17.40
2014,05,24,14,00,17.40
2014,05,24,14,01,17.40
2014,05,24,14,02,17.40
2014,05,24,14,03,17.30
2014,05,24,14,04,17.30
2014,05,24,14,05,17.40
2014,05,24,14,06,17.40
2014,05,24,14,07,17.40
2014,05,24,14,08,17.50
2014,05,24,14,09,17.50
2014,05,24,14,10,17.50
2014,05,24,14,11,17.50
2014,05,24,14,12,17.50
2014,05,24,14,13,17.50
2014,05,24,14,14,17.50
2014,05,24,14,15,17.50
2014,05,24,14,16,17.50
2014,05,24,14,17,17.50
2014,05,24,14,18,17.50
2014,05,24,14,19,17.60
2014,05,24,14,20,17.60
2014,05,24,14,21,17.70
2014,05,24,14,22,17.80
2014,05,24,14,23,17.90
2014,05,24,14,24,18.10
2014,05,24,14,25,18.20
2014,05,24,14,26,18.20
2014,05,24,14,27,18.20
2014,05,24,14,28,18.20
2014,05,24,14,29,18.20
2014,05,24,14,30,18.20
2014,05,24,14,31,18.20
2014,05,24,14,32,18.20
2014,05,24,14,33,18.20
2014,05,24,14,34,18.20
2014,05,24,14,35,18.20
2014,05,24,14,36,18.20
2014,05,24,14,37,18.30
2014,05,24,14,38,18.40
2014,05,24,14,39,18.60
2014,05,24,14,40,18.70
2014,05,24,14,41,18.80
2014,05,24,14,42,18.80
2014,05,24,14,43,18.90
2014,05,24,14,44,18.90
2014,05,24,14,45,18.90
2014,05,24,14,46,18.90
2014,05,24,14,47,19.10
2014,05,24,14,48,19.10
2014,05,24,14,49,19.10
2014,05,24,14,50,19.10
2014,05,24,14,51,19.20
2014,05,24,14,52,19.20
2014,05,24,14,53,19.20
2014,05,24,14,54,19.20
2014,05,24,14,55,19.20
2014,05,24,14,56,19.20
2014,05,24,14,57,19.10
2014,05,24,14,58,19.10
2014,05,24,14,59,19.10
2014,05,24,15,00,19.10
2014,05,24,15,01,19.10
2014,05,24,15,02,19.10
2014,05,24,15,03,19.10
2014,05,24,15,04,19.10
2014,05,24,15,05,19.00
2014,05,24,15,06,18.90
2014,05,24,15,07,18.90
2014,05,24,15,08,18.80
2014,05,24,15,09,18.80
2014,05,24,15,10,18.80
2014,05,24,15,11,18.80
2014,05,24,15,12,18.80
2014,05,24,15,13,18.80
2014,05,24,15,14,18.80
2014,05,24,15,15,18.80
2014,05,24,15,16,18.80
2014,05,24,15,17,18.80
2014,05,24,15,18,18.80
2014,05,24,15,19,18.80
2014,05,24,15,20,18.80
2014,05,24,15,21,18.80
2014,05,24,15,22,18.80
2014,05,24,15,23,18.80
2014,05,24,15,24,18.90
2014,05,24,15,25,18.90
2014,05,24,15,26,18.90
2014,05,24,15,27,18.90
2014,05,24,15,28,18.90
2014,05,24,15,29,18.90
2014,05,24,15,30,18.90
2014,05,24,15,31,18.90
2014,05,24,15,32,18.90
2014,05,24,15,33,18.80
2014,05,24,15,34,18.80
2014,05,24,15,35,18.80
2014,05,24,15,36,18.80
2014,05,24,15,37,18.80
2014,05,24,15,38,18.80
2014,05,24,15,39,18.80
2014,05,24,15,40,18.80
2014,05,24,15,41,18.90
2014,05,24,15,42,18.90
2014,05,24,15,43,18.90
2014,05,24,15,44,18.90
2014,05,24,15,45,18.90
2014,05,24,15,46,18.80
2014,05,24,15,47,18.60
2014,05,24,15,48,18.50
2014,05,24,15,49,18.50
2014,05,24,15,50,18.40
2014,05,24,15,51,18.40
2014,05,24,15,52,18.40
2014,05,24,15,53,18.40
2014,05,24,15,54,18.40
2014,05,24,15,55,18.40
2014,05,24,15,56,18.40
2014,05,24,15,57,18.40
2014,05,24,15,58,18.40
2014,05,24,15,59,18.50
2014,05,24,16,00,18.40
2014,05,24,16,01,18.40
2014,05,24,16,02,18.40
2014,05,24,16,03,18.30
2014,05,24,16,04,18.30
2014,05,24,16,05,18.30
2014,05,24,16,06,18.30
2014,05,24,16,07,18.40
2014,05,24,16,08,18.40
2014,05,24,16,09,18.40
2014,05,24,16,10,18.30
2014,05,24,16,11,18.30
2014,05,24,16,12,18.20
2014,05,24,16,13,18.20
2014,05,24,16,14,18.20
2014,05,24,16,15,18.20
2014,05,24,16,16,18.20
2014,05,24,16,17,18.30
2014,05,24,16,18,18.30
2014,05,24,16,19,18.30
2014,05,24,16,20,18.40
2014,05,24,16,21,18.40
2014,05,24,16,22,18.40
2014,05,24,16,23,18.50
2014,05,24,16,24,18.50
2014,05,24,16,25,18.50
2014,05,24,16,26,18.50
2014,05,24,16,27,18.50
2014,05,24,16,28,18.50
2014,05,24,16,29,18.50
2014,05,24,16,30,18.50
2014,05,24,16,31,18.50
2014,05,24,16,32,18.50
2014,05,24,16,33,18.50
2014,05,24,16,34,18.50
2014,05,24,16,35,18.60
2014,05,24,16,36,18.60
2014,05,24,16,37,18.60
2014,05,24,16,38,18.60
2014,05,24,16,39,18.50
2014,05,24,16,40,18.50
2014,05,24,16,41,18.40
2014,05,24,16,42,18.40
2014,05,24,16,43,18.40
2014,05,24,16,44,18.40
2014,05,24,16,45,18.40
2014,05,24,16,46,18.40
2014,05,24,16,47,18.40
2014,05,24,16,48,18.50
2014,05,24,16,49,18.50
2014,05,24,16,50,18.50
2014,05,24,16,51,18.40
2014,05,24,16,52,18.40
2014,05,24,16,53,18.40
2014,05,24,16,54,18.40
2014,05,24,16,55,18.40
2014,05,24,16,56,18.30
2014,05,24,16,57,18.30
2014,05,24,16,58,18.40
2014,05,24,16,59,18.40
2014,05,24,17,00,18.40
2014,05,24,17,01,18.50
2014,05,24,17,02,18.50
2014,05,24,17,03,18.50
2014,05,24,17,04,18.40
2014,05,24,17,05,18.40
2014,05,24,17,06,18.40
2014,05,24,17,07,18.30
2014,05,24,17,08,18.30
2014,05,24,17,09,18.30
2014,05,24,17,10,18.20
2014,05,24,17,11,18.20
2014,05,24,17,12,18.20
2014,05,24,17,13,18.20
2014,05,24,17,14,18.20
2014,05,24,17,15,18.20
2014,05,24,17,16,18.20
2014,05,24,17,17,18.20
2014,05,24,17,18,18.30
2014,05,24,17,19,18.30
2014,05,24,17,20,18.30
2014,05,24,17,21,18.20
2014,05,24,17,22,18.20
2014,05,24,17,23,18.20
2014,05,24,17,24,18.20
2014,05,24,17,25,18.20
2014,05,24,17,26,18.20
2014,05,24,17,27,18.10
2014,05,24,17,28,18.10
2014,05,24,17,29,18.10
2014,05,24,17,30,18.10
2014,05,24,17,31,18.00
2014,05,24,17,32,17.90
2014,05,24,17,33,17.90
2014,05,24,17,34,17.90
2014,05,24,17,35,17.90